Location: Newark
(49.8969°N, 3.3422°E)
Time: 23:23:46
(UTC+00:00)

Vanguard 2 Rocket - All Passes

Search period start: 18 January 2020 00:00
Search period end: 28 January 2020 00:00
Orbit: 554 x 3326 km, 32.9° (Epoch: 18 January)

Date Brightness Start Highest point End Pass type
(mag) Time Alt. Az. Time Alt. Az. Time Alt. Az.
18 Jan - 05:46:00 10° SSE 05:48:05 11° SE 05:50:26 10° SE visible
18 Jan - 07:53:21 10° SW 07:59:46 27° SSE 08:09:37 10° ESE daylight
18 Jan - 10:04:35 10° WSW 10:13:07 31° S 10:26:05 10° SE daylight
18 Jan - 12:18:23 10° WSW 12:27:28 22° SSW 12:39:16 10° SSE daylight
19 Jan - 06:55:18 10° SSW 07:00:24 21° SSE 07:07:40 10° ESE visible
19 Jan - 09:05:41 10° SW 09:13:04 30° S 09:24:30 10° SE daylight
19 Jan - 11:18:21 10° WSW 11:27:01 24° SSW 11:39:02 10° SSE daylight
19 Jan - 13:37:56 10° SW 13:41:19 11° SW 13:44:55 10° SSW daylight
20 Jan - 05:57:58 10° S 06:01:18 15° SSE 06:05:30 10° ESE visible
20 Jan - 08:07:05 10° SW 08:13:19 27° S 08:22:51 10° ESE daylight
20 Jan - 10:18:53 10° WSW 10:26:45 26° SSW 10:38:13 10° SE daylight
20 Jan - 12:34:29 10° WSW 12:40:55 15° SSW 12:48:35 10° S daylight
21 Jan - 07:08:49 10° SW 07:13:53 23° SSE 07:21:14 10° ESE daylight
21 Jan - 09:19:49 10° WSW 09:26:44 26° S 09:37:04 10° SE daylight
21 Jan - 11:33:35 10° WSW 11:40:35 18° SSW 11:49:37 10° S daylight
22 Jan - 06:10:59 10° SSW 06:14:43 17° SSE 06:19:36 10° ESE visible
22 Jan - 08:21:05 10° SW 08:26:59 25° S 08:35:47 10° SE daylight
22 Jan - 10:33:40 10° WSW 10:40:25 20° SSW 10:49:37 10° SSE daylight
23 Jan - 05:14:23 10° SSE 05:15:45 11° SSE 05:17:14 10° SE visible
23 Jan - 07:22:38 10° SW 07:27:31 22° S 07:34:30 10° SE daylight
23 Jan - 09:34:20 10° SW 09:40:27 21° S 09:49:04 10° SSE daylight
23 Jan - 11:51:23 10° SW 11:54:11 11° SSW 11:57:16 10° SSW daylight
24 Jan - 06:24:30 10° SSW 06:28:16 18° SSE 06:33:16 10° SE visible
24 Jan - 08:35:23 10° SW 08:40:43 21° S 08:48:17 10° SE daylight
24 Jan - 10:49:38 10° SW 10:54:06 13° SSW 10:59:31 10° S daylight
25 Jan - 05:26:56 10° S 05:29:13 13° SSE 05:31:54 10° SE visible
25 Jan - 07:36:45 10° SW 07:41:13 20° S 07:47:24 10° SE daylight
25 Jan - 09:49:35 10° SW 09:54:12 15° SSW 10:00:06 10° SSE daylight
26 Jan - 06:38:24 10° SSW 06:41:57 17° S 06:46:33 10° SE visible
26 Jan - 08:50:14 10° SW 08:54:30 16° S 09:00:03 10° SSE daylight
27 Jan - 05:40:25 10° SSW 05:42:50 13° SSE 05:45:41 10° SE visible
27 Jan - 07:51:19 10° SW 07:55:00 16° S 07:59:45 10° SSE daylight
